Location: Newark
(50.6583°N, 14.0417°E)
Time: 05:41:58
(UTC+00:00)

Envisat - Visible Passes

Search period start: 20 January 2020 00:00
Search period end: 30 January 2020 00:00
Orbit: 764 x 766 km, 98.1° (Epoch: 19 January)

Date Brightness Start Highest point End Pass type
(mag) Time Alt. Az. Time Alt. Az. Time Alt. Az.
20 Jan 6.2 04:20:04 10° ENE 04:22:23 13° E 04:24:42 10° ESE visible
20 Jan 3.2 05:57:07 10° NNE 06:02:14 82° ESE 06:07:19 10° SSW visible
20 Jan 4.0 17:16:48 10° S 17:21:43 48° W 17:26:39 10° NNW visible
21 Jan 4.4 05:20:30 10° NNE 05:25:20 41° E 05:30:07 10° SSE visible
21 Jan 3.0 16:39:45 10° SSE 16:44:51 86° ENE 16:49:58 10° NNW visible
21 Jan 6.0 18:21:37 10° WSW 18:24:34 15° W 18:27:33 10° NW visible
22 Jan 5.6 04:44:22 10° NE 04:48:14 21° E 04:52:03 10° SE visible
22 Jan 3.3 16:03:22 10° SE 16:08:10 45° ENE 16:13:00 10° N visible
22 Jan 5.0 17:42:55 10° SSW 17:47:22 30° W 17:51:50 10° NNW visible
23 Jan 6.4 04:10:12 10° ENE 04:10:54 10° E 04:11:36 10° E visible
23 Jan 3.5 05:45:50 10° NNE 05:50:56 67° ESE 05:55:59 10° S visible
23 Jan 3.6 17:05:21 10° S 17:10:22 59° W 17:15:25 10° NNW visible
24 Jan 4.8 05:09:20 10° NNE 05:13:57 34° E 05:18:33 10° SSE visible
24 Jan 3.0 16:28:31 10° SSE 16:33:34 71° ENE 16:38:39 10° N visible
24 Jan 5.8 18:09:34 10° SW 18:13:08 19° W 18:16:42 10° NW visible
25 Jan 5.9 04:33:26 10° NE 04:36:48 17° E 04:40:08 10° SE visible
25 Jan 3.0 06:11:19 10° NNE 06:16:25 77° WNW 06:21:30 10° SSW visible
25 Jan 4.6 17:31:19 10° SSW 17:35:59 37° W 17:40:42 10° NNW visible
26 Jan 3.9 05:34:35 10° NNE 05:39:36 55° E 05:44:34 10° S visible
26 Jan 3.3 16:53:59 10° S 16:59:03 73° WSW 17:04:09 10° NNW visible
26 Jan 6.3 18:37:24 10° WSW 18:39:00 11° W 18:40:36 10° WNW visible
27 Jan 5.2 04:58:13 10° NE 05:02:35 28° E 05:06:54 10° SSE visible
27 Jan 3.1 16:17:20 10° SSE 16:22:18 58° ENE 16:27:18 10° N visible
27 Jan 5.5 17:57:43 10° SW 18:01:42 23° W 18:05:43 10° NW visible
28 Jan 6.2 04:22:41 10° NE 04:25:21 14° E 04:28:00 10° ESE visible
28 Jan 3.1 06:00:01 10° NNE 06:05:08 88° ESE 06:10:14 10° SSW visible
28 Jan 4.2 17:19:46 10° S 17:24:37 45° W 17:29:31 10° NNW visible
29 Jan 4.3 05:23:22 10° NNE 05:28:16 44° E 05:33:06 10° S visible
29 Jan 3.1 16:42:39 10° SSE 16:47:44 88° WSW 16:52:52 10° NNW visible
29 Jan 6.1 18:24:51 10° WSW 18:27:32 14° W 18:30:13 10° NW visible
